Weather reports worldwide

Advertisment
Nogales, az, United States of America (2074741): temperature & dewpoint: 09.12.2019 10:00:00 - 15.12.2019 10:00:00 (MST)Nogales, az, United States of America (2074741): wind speed: 09.12.2019 10:00:00 - 15.12.2019 10:00:00 (MST)Nogales, az, United States of America (2074741): wind direction: 09.12.2019 10:00:00 - 15.12.2019 10:00:00 (MST)Nogales, az, United States of America (2074741): reduced air pressure: 09.12.2019 10:00:00 - 15.12.2019 10:00:00 (MST)Nogales, az, United States of America (2074741): visibility: 09.12.2019 10:00:00 - 15.12.2019 10:00:00 (MST)Nogales, az, United States of America (2074741): precipitation: 09.12.2019 10:00:00 - 15.12.2019 10:00:00 (MST)
Date & Time tt [°C] td [°C] ff [km/h] ff [kn] dd ppp [hPa] vv [km] rr [mm]
15.12.2019 10:00:00 15,6 2,8 18 10 SSE 1010,5 16 -
15.12.2019 09:00:00 13,9 2,8 11 6 S 1010,0 16 -
15.12.2019 08:00:00 9,4 1,7 0 0 N 1010,3 16 -
15.12.2019 07:00:00 6,7 2,2 8 4 SSE 1009,3 16 -
15.12.2019 06:00:00 10,0 2,2 9 5 S 1008,3 16 -
15.12.2019 05:00:00 10,6 2,8 5 3 S 1007,5 16 -
15.12.2019 04:00:00 8,9 2,8 0 0 N 1007,5 16 -
15.12.2019 03:00:00 10,0 2,8 8 4 S 1006,9 16 -
15.12.2019 02:00:00 10,6 2,8 11 6 SSE 1007,0 16 -
15.12.2019 01:00:00 8,3 2,2 11 6 S 1007,7 16 -
15.12.2019 00:00:00 11,1 2,2 9 5 S 1007,8 16 -
14.12.2019 23:00:00 11,7 1,7 5 3 SSW 1008,4 16 -
14.12.2019 22:00:00 13,3 1,7 9 5 SSE 1008,7 16 -
14.12.2019 21:00:00 14,4 1,7 8 4 SSW 1009,7 16 -
14.12.2019 20:00:00 15,0 1,7 9 5 S 1010,1 16 -
14.12.2019 19:00:00 16,7 0,6 11 6 S 1010,1 16 -
14.12.2019 18:00:00 16,7 1,1 9 5 S 1009,8 16 -
14.12.2019 17:00:00 20,0 0,6 16 9 SW 1009,2 16 -
14.12.2019 16:00:00 21,7 -1,7 18 10 W 1009,1 16 -
14.12.2019 15:00:00 22,8 -1,7 18 10 WSW 1009,0 16 -
14.12.2019 14:00:00 22,8 -1,7 18 10 W 1009,3 16 -
14.12.2019 13:00:00 22,8 -1,1 21 11 WSW 1010,2 16 -
14.12.2019 12:00:00 21,1 1,7 13 7 S 1011,2 16 -
14.12.2019 11:00:00 20,0 2,2 13 7 S 1012,2 16 -
14.12.2019 10:00:00 16,1 4,4 5 3 S 1013,1 16 -
14.12.2019 09:00:00 10,0 2,8 0 0 N 1013,7 16 -
14.12.2019 08:00:00 5,6 1,1 5 3 SSE 1014,2 16 -
14.12.2019 07:00:00 3,9 0,0 5 3 SSE 1014,1 16 -
14.12.2019 06:00:00 5,0 0,0 0 0 N 1013,1 16 -
14.12.2019 05:00:00 5,0 0,0 0 0 N 1012,6 16 -
14.12.2019 04:00:00 5,0 0,0 5 3 S 1012,6 16 -
14.12.2019 03:00:00 5,0 0,0 0 0 N 1012,9 16 -
14.12.2019 02:00:00 5,0 0,0 0 0 N 1013,7 16 -
14.12.2019 01:00:00 6,1 0,0 0 0 N 1014,3 16 -
14.12.2019 00:00:00 7,8 0,0 9 5 E 1014,7 16 -
13.12.2019 23:00:00 8,9 0,0 0 0 N 1015,5 16 -
13.12.2019 22:00:00 10,6 -0,6 0 0 N 1016,4 16 -
13.12.2019 21:00:00 10,6 -0,6 5 3 E 1016,7 16 -
13.12.2019 20:00:00 11,7 -1,1 8 4 E 1017,1 16 -
13.12.2019 19:00:00 12,8 -1,7 0 0 N 1017,3 16 -
13.12.2019 18:00:00 18,3 -5,6 5 3 WNW 1016,2 16 -
13.12.2019 17:00:00 21,7 -6,1 9 5 W 1015,4 16 -
13.12.2019 16:00:00 23,9 -5,6 15 8 WSW 1015,1 16 -
13.12.2019 15:00:00 24,4 -6,1 9 5 WNW 1015,4 16 -
13.12.2019 14:00:00 23,9 -6,7 8 4 S 1015,9 16 -
13.12.2019 13:00:00 22,2 -8,9 0 0 N 1017,3 16 -
13.12.2019 12:00:00 20,0 -7,8 5 3 SSW 1018,8 16 -
13.12.2019 11:00:00 17,2 -4,4 0 0 N 1020,5 16 -
13.12.2019 10:00:00 11,7 0,0 8 4 S 1021,7 16 -
13.12.2019 09:00:00 7,2 0,6 5 3 SSE 1022,3 16 -
13.12.2019 08:00:00 3,9 -1,1 0 0 N 1022,2 16 -
13.12.2019 07:00:00 2,2 -1,7 8 4 NE 1021,8 16 -
13.12.2019 06:00:00 2,8 -1,7 0 0 N 1020,9 16 -
13.12.2019 05:00:00 2,8 -1,7 8 4 E 1020,2 16 -
13.12.2019 04:00:00 2,8 -1,7 0 0 N 1019,8 16 -
13.12.2019 03:00:00 3,9 -1,7 5 3 S 1020,1 16 -
13.12.2019 02:00:00 4,4 -1,1 0 0 N 1019,8 16 -
13.12.2019 01:00:00 3,9 -1,1 0 0 N 1020,2 16 -
13.12.2019 00:00:00 5,0 -1,1 11 6 E 1021,1 16 -
12.12.2019 23:00:00 5,0 -1,1 0 0 N 1021,5 16 -
12.12.2019 22:00:00 6,1 -1,7 9 5 E 1022,0 16 -
12.12.2019 21:00:00 7,2 -0,6 0 0 N 1022,3 16 -
12.12.2019 20:00:00 8,3 -1,7 5 3 NE 1022,6 16 -
12.12.2019 19:00:00 10,0 -1,7 8 4 E 1022,3 16 -
12.12.2019 18:00:00 13,9 -4,4 0 0 N 1021,1 16 -
12.12.2019 17:00:00 17,2 -6,7 8 4 N 1020,4 16 -
12.12.2019 16:00:00 20,0 -6,7 11 6 NNW 1019,7 16 -
12.12.2019 15:00:00 19,4 -7,2 5 3 NW 1019,9 16 -
12.12.2019 14:00:00 20,0 -8,3 9 5 W 1020,1 16 -
12.12.2019 13:00:00 18,9 -10,0 9 5 WNW 1020,7 16 -
12.12.2019 12:00:00 17,2 -2,8 5 3 W 1021,6 16 -
12.12.2019 11:00:00 15,0 0,0 5 3 - 1022,5 16 -
12.12.2019 10:00:00 11,7 2,2 5 3 SSW 1023,0 16 -
12.12.2019 09:00:00 6,1 1,7 5 3 S 1023,2 16 -
12.12.2019 08:00:00 1,7 -1,1 0 0 N 1022,8 16 -
12.12.2019 07:00:00 0,6 -2,2 0 0 N 1022,5 16 -
12.12.2019 06:00:00 1,1 -2,2 0 0 N 1021,9 16 -
12.12.2019 05:00:00 1,1 -1,7 0 0 N 1020,6 16 -
12.12.2019 04:00:00 1,7 -1,7 0 0 N 1020,4 16 -
12.12.2019 03:00:00 1,7 -1,7 0 0 N 1020,5 16 -
12.12.2019 02:00:00 2,2 -1,1 0 0 N 1020,2 16 -
12.12.2019 01:00:00 2,8 -1,1 5 3 SE 1020,4 16 -
12.12.2019 00:00:00 3,9 -1,1 0 0 N 1020,2 16 -
11.12.2019 23:00:00 4,4 -0,6 0 0 N 1020,2 16 -
11.12.2019 22:00:00 6,1 -0,6 0 0 N 1020,0 16 -
11.12.2019 21:00:00 6,7 -0,6 5 3 NE 1020,1 16 -
11.12.2019 20:00:00 7,8 0,0 5 3 ESE 1019,8 16 -
11.12.2019 19:00:00 9,4 -0,6 8 4 ENE 1019,8 16 -
11.12.2019 18:00:00 11,1 -0,6 5 3 ENE 1018,8 16 -
11.12.2019 17:00:00 17,8 -2,8 0 0 N 1017,4 16 -
11.12.2019 16:00:00 18,9 -4,4 0 0 N 1017,3 16 -
11.12.2019 15:00:00 19,4 -6,1 5 3 - 1017,4 16 -
11.12.2019 14:00:00 18,9 -2,8 0 0 N 1017,3 16 -
11.12.2019 13:00:00 17,2 -2,8 9 5 SSE 1017,8 16 -
11.12.2019 12:00:00 16,1 -1,1 8 4 - 1019,3 16 -
11.12.2019 11:00:00 13,9 -1,1 0 0 N 1020,1 16 -
11.12.2019 10:00:00 11,1 1,1 0 0 N 1021,1 16 -
11.12.2019 09:00:00 5,6 2,2 0 0 N 1021,8 16 -
11.12.2019 08:00:00 3,9 0,6 0 0 N 1021,7 16 -
11.12.2019 07:00:00 3,9 0,6 11 6 NE 1020,9 16 -
11.12.2019 06:00:00 3,3 0,6 11 6 NE 1020,3 16 -
11.12.2019 05:00:00 2,8 0,6 5 3 E 1019,8 16 -
11.12.2019 04:00:00 3,3 0,6 8 4 ENE 1019,7 16 -
11.12.2019 03:00:00 3,9 1,1 0 0 N 1019,8 16 -
11.12.2019 02:00:00 3,9 0,6 0 0 N 1020,3 16 -
11.12.2019 01:00:00 5,6 1,1 0 0 N 1020,5 16 -
11.12.2019 00:00:00 4,4 1,1 9 5 ENE 1021,8 16 -
10.12.2019 23:00:00 5,6 1,7 8 4 ENE 1022,3 16 -
10.12.2019 22:00:00 6,7 2,8 11 6 NNE 1022,3 16 -
10.12.2019 21:00:00 8,3 2,2 0 0 N 1022,2 16 -
10.12.2019 20:00:00 7,8 2,8 9 5 ENE 1022,2 16 -
10.12.2019 19:00:00 10,6 3,3 0 0 N 1021,6 16 -
10.12.2019 18:00:00 12,2 3,9 0 0 N 1020,3 16 -
10.12.2019 17:00:00 15,6 3,9 8 4 WSW 1019,7 16 -
10.12.2019 16:00:00 16,7 4,4 11 6 SSE 1019,2 16 -
10.12.2019 15:00:00 16,7 3,9 5 3 ENE 1019,7 16 -
10.12.2019 14:00:00 16,1 4,4 5 3 WNW 1019,6 16 -
10.12.2019 13:00:00 14,4 5,0 8 4 - 1020,4 16 -
10.12.2019 12:00:00 12,2 5,6 0 0 N 1021,3 16 -
10.12.2019 11:00:00 8,3 6,1 8 4 S 1022,3 16 -
10.12.2019 10:00:00 6,7 5,6 0 0 N 1022,6 4,8 -
10.12.2019 09:00:00 4,4 4,4 0 0 N 1022,2 - -
10.12.2019 08:00:00 3,9 2,8 0 0 N 1021,8 - -
10.12.2019 07:00:00 1,7 0,6 8 4 E 1021,1 16 -
10.12.2019 06:00:00 2,8 1,1 9 5 NE 1020,0 16 -
10.12.2019 05:00:00 2,2 0,6 8 4 NE 1019,3 16 -
10.12.2019 04:00:00 2,2 0,6 5 3 NE 1019,1 16 -
10.12.2019 03:00:00 2,8 1,7 5 3 ENE 1018,0 16 -
10.12.2019 02:00:00 3,3 1,7 8 4 ENE 1017,9 16 -
10.12.2019 01:00:00 3,3 1,7 0 0 N 1017,6 16 -
10.12.2019 00:00:00 3,9 2,2 0 0 N 1016,5 16 -
09.12.2019 23:00:00 4,4 2,8 5 3 WSW 1016,2 16 -
09.12.2019 22:00:00 5,0 2,8 0 0 N 1014,9 16 -
09.12.2019 21:00:00 4,4 2,8 5 3 ENE 1015,5 16 -
09.12.2019 20:00:00 5,0 3,3 0 0 N 1014,9 16 -
09.12.2019 19:00:00 6,1 3,9 8 4 ESE 1014,1 16 0,0
09.12.2019 18:00:00 7,2 5,0 16 9 WSW 1013,7 16 0,0
09.12.2019 17:00:00 7,8 5,6 16 9 S 1012,6 16 0,8
09.12.2019 16:00:00 8,3 5,0 15 8 WNW 1011,9 10 0,8
09.12.2019 15:00:00 - - - - - - - -
09.12.2019 14:00:00 8,3 6,1 0 0 N 1011,0 4,8 2,8
09.12.2019 13:00:00 10,0 4,4 21 11 NW 1010,7 15 0,3
09.12.2019 12:00:00 15,0 5,6 22 12 SSW 1009,7 16 -
09.12.2019 11:00:00 14,4 5,6 24 13 S 1010,7 16 -
09.12.2019 10:00:00 14,4 6,1 13 7 S 1011,6 16 -

tt = temperature
td = dewpoint
ff = wind speed
dd = wind direction
ppp = reduced air pressure
vv = visibility
rr = precipitation

Next stations